Mytilini, Greece

6:00 PM EET on January 17, 2019 (GMT +0200)
Odysseas Elytis

Weather History for LGMT - January, 2019

Change the Weather History Date:

Friday, January 11, 2019

  Actual Average Record
Temperature  
Mean Temperature 54 °F -  
Max Temperature 57 °F 54 °F 66 °F (2016)
Min Temperature 50 °F 44 °F 35 °F (2008)
Degree Days  
Heating Degree Days 12    
Growing Degree Days 4 (Base 50)    
Moisture  
Dew Point 49 °F    
Average Humidity 83    
Maximum Humidity 94    
Minimum Humidity 68    
Precipitation  
Precipitation 0.20 in 0.15 in - ()
Sea Level Pressure  
Sea Level Pressure 29.96 in    
Wind  
Wind Speed 10 mph ()    
Max Wind Speed 18 mph    
Max Gust Speed 29 mph    
Visibility 6.0 miles    
Events Rain , Thunderstorm    
Averages and records for this station are not official NWS values.
T = Trace of Precipitation, MM = Missing Value Source: Averaged Metar Reports

Daily Weather History Graph

Daily Weather History Graph

Search for Another Location

Airport or City:

Astronomy

Jan. 11, 2019 Rise Set
Actual Time 7:32 AM EET 5:10 PM EET
Civil Twilight 7:02 AM EET 5:40 PM EET
Nautical Twilight 6:29 AM EET 6:13 PM EET
Astronomical Twilight 5:57 AM EET 6:45 PM EET
Moon 10:42 AM EET (1/11) 10:12 PM EET (1/11)
Length of Visible Light 10h 37m
Length of Day
9h 38m
Waxing Crescent, 24% of the Moon is Illuminated
Jan 11
Waxing Crescent
Jan 14
First Quarter
Jan 21
Full
Jan 27
Last Quarter
Feb 4
New

Hourly Weather History & Observations

Time (EET) Temp. Dew Point Humidity Pressure Visibility Wind Dir Wind Speed Gust Speed Precip Events Conditions
5:50 AM 57.2 °F 50.0 °F 77% 29.92 in 6.2 mi SSW 13.8 mph 25.3 mph N/A Rain Light Rain
6:20 AM 57.2 °F 50.0 °F 77% 29.92 in 5.6 mi SSW 15.0 mph 27.6 mph N/A Rain Light Rain
6:50 AM 55.4 °F 50.0 °F 82% 29.95 in 5.6 mi SW 18.4 mph - N/A Rain Light Rain
7:20 AM 55.4 °F 50.0 °F 82% 29.95 in 6.2 mi South 12.7 mph - N/A Rain Light Rain
7:50 AM 55.4 °F 51.8 °F 88% 29.95 in 5.0 mi SW 13.8 mph 25.3 mph N/A Rain , Thunderstorm Light Thunderstorms and Rain
8:00 AM 55 °F 51 °F 81% 29.96 in 5 mi SW 13.8 mph - - Rain , Thunderstorm Thunderstorms and Rain
8:20 AM 55.4 °F 51.8 °F 88% 29.95 in 5.0 mi SW 16.1 mph 27.6 mph N/A Rain Light Rain
8:50 AM 55.4 °F 50.0 °F 82% 29.98 in 6.2 mi SW 13.8 mph 25.3 mph N/A Rain Light Rain
9:20 AM 55.4 °F 50.0 °F 82% 29.98 in 6.2 mi South 15.0 mph - N/A Rain Light Rain
9:50 AM 55.4 °F 50.0 °F 82% 29.98 in 6.2 mi SSE 12.7 mph - N/A Rain Light Rain
10:20 AM 55.4 °F 50.0 °F 82% 29.98 in 6.2 mi SSE 12.7 mph - N/A Rain Light Rain
10:50 AM 55.4 °F 50.0 °F 82% 29.98 in 6.2 mi SSE 11.5 mph - N/A Rain Light Rain
11:20 AM 57.2 °F 50.0 °F 77% 29.95 in 6.2 mi South 15.0 mph - N/A   Mostly Cloudy
11:50 AM 57.2 °F 50.0 °F 77% 29.95 in 6.2 mi SSW 13.8 mph 25.3 mph N/A   Mostly Cloudy
12:20 PM 57.2 °F 50.0 °F 77% 29.98 in 6.2 mi SW 17.3 mph 28.8 mph N/A   Mostly Cloudy
12:50 PM 57.2 °F 48.2 °F 72% 29.95 in 6.2 mi SW 11.5 mph 25.3 mph N/A   Mostly Cloudy
1:20 PM 57.2 °F 48.2 °F 72% 29.95 in 6.2 mi WSW 9.2 mph 25.3 mph N/A   Mostly Cloudy
1:50 PM 55.4 °F 48.2 °F 77% 29.95 in 6.2 mi NW 8.1 mph - N/A   Mostly Cloudy
2:00 PM 55 °F 47 °F 68% 29.97 in 6 mi NW 8.1 mph - -   Partly Cloudy
2:20 PM 53.6 °F 46.4 °F 77% 29.95 in 6.2 mi NW 8.1 mph - N/A   Mostly Cloudy
2:50 PM 53.6 °F 46.4 °F 77% 29.95 in 5.0 mi WNW 9.2 mph - N/A Rain Rain
3:20 PM 53.6 °F 46.4 °F 77% 29.95 in 6.2 mi Variable 2.3 mph - N/A Rain Light Rain
3:50 PM 53.6 °F 48.2 °F 82% 29.95 in 6.2 mi Calm Calm - N/A   Mostly Cloudy
4:20 PM 53.6 °F 48.2 °F 82% 29.95 in 6.2 mi Variable 2.3 mph - N/A   Mostly Cloudy
4:50 PM 53.6 °F 50.0 °F 88% 29.95 in 6.2 mi Calm Calm - N/A   Mostly Cloudy
5:00 PM 53 °F 50 °F 84% 29.97 in 6 mi Calm Calm - -   Partly Cloudy
5:20 PM 53.6 °F 50.0 °F 88% 29.95 in 6.2 mi Variable 3.5 mph - N/A   Mostly Cloudy
5:50 PM 51.8 °F 48.2 °F 88% 29.98 in 6.2 mi Variable 3.5 mph - N/A   Scattered Clouds
6:20 PM 51.8 °F 48.2 °F 88% 29.98 in 6.2 mi Variable 2.3 mph - N/A   Scattered Clouds
6:50 PM 51.8 °F 48.2 °F 88% 29.98 in 6.2 mi West 4.6 mph - N/A   Scattered Clouds
7:20 PM 50.0 °F 48.2 °F 94% 29.98 in 6.2 mi West 4.6 mph - N/A   Scattered Clouds
7:50 PM 50.0 °F 48.2 °F 94% 29.98 in 6.2 mi WSW 4.6 mph - N/A Thunderstorm Scattered Clouds
8:00 PM 50 °F 48 °F 91% 29.99 in 6 mi WSW 4.6 mph - - Thunderstorm Thunderstorm
8:20 PM 50.0 °F 48.2 °F 94% 29.98 in 6.2 mi Variable 3.5 mph - N/A Rain , Thunderstorm Light Thunderstorms and Rain
8:50 PM 50.0 °F 48.2 °F 94% 29.98 in 4.3 mi SW 10.4 mph - N/A Rain , Thunderstorm Thunderstorms and Rain
9:20 PM 51.8 °F 48.2 °F 88% 29.98 in 5.6 mi West 10.4 mph - N/A Rain Light Rain
9:50 PM 51.8 °F 46.4 °F 82% 29.98 in 6.2 mi West 8.1 mph - N/A   Mostly Cloudy